This is the latest recevied weather packets stored in our database for station/object N1IJV-10. If no packets are shown the sender has not sent any weather packets the latest 10 day(s).
| Time | Temp. | Humidity | Pressure | Rain* | Wind** | Luminosity | Snow |
|---|---|---|---|---|---|---|---|
| 1777981747 | 8.89° C | 74% | 1008.5 hPa | 1.27 mm | - | 3 W/m² | - |
| 1777981443 | 8.89° C | 73% | 1008.1 hPa | 0 mm | - | 2 W/m² | - |
| 1777981139 | 9.44° C | 69% | 1007.7 hPa | 0 mm | - | 0 W/m² | - |
| 1777980836 | 9.44° C | 67% | 1007.4 hPa | 0 mm | - | 1 W/m² | - |
| 1777980532 | 9.44° C | 66% | 1007.4 hPa | 0 mm | - | 1 W/m² | - |
| 1777980230 | 10° C | 63% | 1007.6 hPa | 0 mm | - | 0 W/m² | - |
| 1777979925 | 10° C | 63% | 1006.8 hPa | 0 mm | - | 0 W/m² | - |
| 1777979621 | 10° C | 63% | 1006.4 hPa | 0 mm | - | 0 W/m² | - |
| 1777979317 | 10° C | 64% | 1006 hPa | 0 mm | - | 0 W/m² | - |
| 1777979014 | 10° C | 62% | 1006.1 hPa | 0 mm | - | 0 W/m² | - |
| 1777978711 | 10.56° C | 60% | 1006.4 hPa | 0 mm | - | 0 W/m² | - |
| 1777978407 | 10.56° C | 61% | 1006 hPa | 0 mm | - | 0 W/m² | - |
| 1777978103 | 10° C | 61% | 1006.4 hPa | 0 mm | - | 0 W/m² | - |
| 1777977801 | 10.56° C | 62% | 1006.2 hPa | 0 mm | - | 0 W/m² | - |
| 1777977497 | 10.56° C | 60% | 1006.4 hPa | 0 mm | - | 0 W/m² | - |
| 1777977195 | 10.56° C | 61% | 1006.6 hPa | 0 mm | - | 0 W/m² | - |
| 1777976892 | 10.56° C | 65% | 1006.6 hPa | 0 mm | - | 0 W/m² | - |
| 1777976590 | 10.56° C | 63% | 1006.4 hPa | 0 mm | - | 0 W/m² | - |
| 1777976289 | 10.56° C | 62% | 1005.4 hPa | 0 mm | - | 0 W/m² | - |
| 1777975985 | 10.56° C | 60% | 1005.1 hPa | 0 mm | - | 0 W/m² | - |
| 1777975681 | 10.56° C | 62% | 1005.3 hPa | 0 mm | - | 0 W/m² | - |
| 1777975378 | 10.56° C | 60% | 1005.4 hPa | 0 mm | - | 0 W/m² | - |
| 1777975073 | 11.11° C | 58% | 1005.5 hPa | 0 mm | - | 0 W/m² | - |
| 1777974771 | 11.11° C | 57% | 1005.4 hPa | 0 mm | - | 0 W/m² | - |
| 1777974466 | 11.11° C | 60% | 1005.5 hPa | 0 mm | - | 0 W/m² | - |
* Rain latest hour (hover to see other rain measurements)
** Current wind speed in m/s (hover to see current wind gust speed)